Time,TemperatureF,DewpointF,PressureIn,WindDirection,WindDirectionDegrees,WindSpeedMPH,WindSpeedGustMPH,Humidity,HourlyPrecipIn,Conditions,Clouds,dailyrainin,SolarRadiationWatts/m^2,SoftwareType,DateUTC
2013-07-16 00:01:00,70.0,64.0,30.43,ENE,63,2.0,5.0,82,0.00,,,0.00,0.000000,,2013-07-16 04:01:00,
2013-07-16 13:10:00,88.0,66.0,30.42,NW,309,2.0,9.0,49,-99.99,,,0.00,1117.000000,,2013-07-16 17:10:00,
2013-07-16 13:43:00,88.0,66.0,30.42,NW,309,2.0,9.0,49,-99.99,,,0.00,1117.000000,,2013-07-16 17:43:00,
2013-07-16 13:53:00,88.0,66.0,30.42,NW,309,2.0,9.0,49,-99.99,,,0.00,1117.000000,,2013-07-16 17:53:00,
2013-07-16 14:01:00,88.0,66.0,30.42,NW,309,2.0,9.0,49,-99.99,,,0.00,1117.000000,,2013-07-16 18:01:00,
2013-07-16 14:10:00,92.0,68.0,30.40,North,9,4.0,9.0,46,0.00,,,0.00,1208.000000,,2013-07-16 18:10:00,
2013-07-16 14:43:00,92.0,68.0,30.40,North,9,4.0,9.0,46,0.00,,,0.00,1208.000000,,2013-07-16 18:43:00,
2013-07-16 14:53:00,92.0,68.0,30.40,North,9,4.0,9.0,46,0.00,,,0.00,1208.000000,,2013-07-16 18:53:00,
2013-07-16 15:01:00,92.0,68.0,30.40,North,9,4.0,9.0,46,0.00,,,0.00,1208.000000,,2013-07-16 19:01:00,
2013-07-16 15:10:00,93.0,68.0,30.38,SE,130,2.0,9.0,45,0.00,,,0.00,1238.000000,,2013-07-16 19:10:00,
2013-07-16 15:43:00,93.0,68.0,30.38,SE,130,2.0,9.0,45,0.00,,,0.00,1238.000000,,2013-07-16 19:43:00,
2013-07-16 15:52:00,93.0,68.0,30.38,SE,130,2.0,9.0,45,0.00,,,0.00,1238.000000,,2013-07-16 19:52:00,
2013-07-16 16:03:00,93.0,68.0,30.38,SE,130,2.0,9.0,45,0.00,,,0.00,1238.000000,,2013-07-16 20:03:00,
2013-07-16 16:10:00,92.0,72.0,30.38,SSW,201,4.0,11.0,52,0.00,,,0.00,1202.000000,,2013-07-16 20:10:00,
2013-07-16 16:43:00,92.0,72.0,30.38,SSW,201,4.0,11.0,52,0.00,,,0.00,1202.000000,,2013-07-16 20:43:00,
2013-07-16 16:52:00,92.0,72.0,30.38,SSW,201,4.0,11.0,52,0.00,,,0.00,1202.000000,,2013-07-16 20:52:00,
2013-07-16 17:01:00,92.0,72.0,30.38,SSW,201,4.0,11.0,52,0.00,,,0.00,1202.000000,,2013-07-16 21:01:00,
2013-07-16 17:10:00,90.0,71.0,30.37,SSW,205,6.0,12.0,54,0.00,,,0.00,959.000000,,2013-07-16 21:10:00,
2013-07-16 17:52:00,90.0,71.0,30.37,SSW,205,6.0,12.0,54,0.00,,,0.00,959.000000,,2013-07-16 21:52:00,
2013-07-16 18:01:00,90.0,71.0,30.37,SSW,205,6.0,12.0,54,0.00,,,0.00,959.000000,,2013-07-16 22:01:00,
2013-07-16 18:10:00,79.0,67.0,30.37,SSW,208,5.0,12.0,67,0.00,,,0.00,879.000000,,2013-07-16 22:10:00,
2013-07-16 18:43:00,79.0,67.0,30.37,SSW,208,5.0,12.0,67,0.00,,,0.00,879.000000,,2013-07-16 22:43:00,
2013-07-16 18:52:00,79.0,67.0,30.37,SSW,208,5.0,12.0,67,0.00,,,0.00,879.000000,,2013-07-16 22:52:00,
2013-07-16 19:02:00,79.0,67.0,30.37,SSW,208,5.0,12.0,67,0.00,,,0.00,879.000000,,2013-07-16 23:02:00,
2013-07-16 19:10:00,78.0,66.0,30.37,SW,220,4.0,9.0,66,0.00,,,0.00,293.000000,,2013-07-16 23:10:00,
2013-07-16 19:43:00,78.0,66.0,30.37,SW,220,4.0,9.0,66,0.00,,,0.00,293.000000,,2013-07-16 23:43:00,
2013-07-16 19:52:00,78.0,66.0,30.37,SW,220,4.0,9.0,66,0.00,,,0.00,293.000000,,2013-07-16 23:52:00,
2013-07-16 20:01:00,78.0,66.0,30.37,SW,220,4.0,9.0,66,0.00,,,0.00,293.000000,,2013-07-17 00:01:00,
2013-07-16 21:10:00,72.0,63.0,30.39,North,5,10.0,31.0,73,-99.99,,,0.00,74.000000,,2013-07-17 01:10:00,
2013-07-16 21:43:00,72.0,63.0,30.39,North,5,10.0,31.0,73,-99.99,,,0.00,74.000000,,2013-07-17 01:43:00,
2013-07-16 21:53:00,72.0,63.0,30.39,North,5,10.0,31.0,73,-99.99,,,0.00,74.000000,,2013-07-17 01:53:00,
2013-07-16 22:01:00,72.0,63.0,30.39,North,5,10.0,31.0,73,-99.99,,,0.00,74.000000,,2013-07-17 02:01:00,
2013-07-16 22:10:00,71.0,65.0,30.39,NNE,12,8.0,16.0,80,0.00,,,0.00,3.000000,,2013-07-17 02:10:00,
2013-07-16 22:43:00,71.0,65.0,30.39,NNE,12,8.0,16.0,80,0.00,,,0.00,3.000000,,2013-07-17 02:43:00,
2013-07-16 22:53:00,71.0,65.0,30.39,NNE,12,8.0,16.0,80,0.00,,,0.00,3.000000,,2013-07-17 02:53:00,
2013-07-16 23:01:00,71.0,65.0,30.39,NNE,12,8.0,16.0,80,0.00,,,0.00,3.000000,,2013-07-17 03:01:00,
2013-07-16 23:10:00,71.0,65.0,30.38,North,10,7.0,17.0,81,0.00,,,0.00,0.000000,,2013-07-17 03:10:00,
2013-07-16 23:43:00,71.0,65.0,30.38,North,10,7.0,17.0,81,0.00,,,0.00,0.000000,,2013-07-17 03:43:00,
2013-07-16 23:53:00,71.0,65.0,30.38,North,10,7.0,17.0,81,0.00,,,0.00,0.000000,,2013-07-17 03:53:00,